Location: Bandys
(35.4750°N, 81.0830°W)
Time: 01:07:56
(UTC-04:00)

Daily predictions for brighter satellites

Satellite Brightness Start Highest point End
(mag) Time Altitude Azimuth Time Altitude Azimuth Time Altitude Azimuth
Cosmos 2263 Rocket 4.4 00:05:33 10° NNW 00:07:11 20° NW 00:07:11 20° NW
ATLAS CENTAUR R/B 4.4 00:42:26 70° NNW 00:42:26 70° NNW 01:03:51 10° NE
ATLAS 3B R/B 4.2 02:10:14 34° N 02:10:14 34° N 02:14:34 10° NNE
USA 234 4.5 02:59:30 10° NE 03:03:20 34° ENE 03:03:20 34° ENE
Cosmos 2369 Rocket 3.7 03:20:54 10° N 03:24:37 32° NNE 03:24:37 32° NNE
CENTAUR R/B 3.9 03:32:55 29° E 03:32:55 29° E 03:37:46 10° NE
Resurs 1-4 Rocket 3.6 03:30:17 10° NNE 03:33:46 31° ENE 03:33:46 31° ENE
NOSS 3-2 (C) 4.3 03:37:46 45° N 03:37:46 45° N 03:42:30 10° NNE
Centaur D-1A AC-31 3.6 02:42:39 10° WSW 03:38:21 55° S 03:43:58 10° ESE
Cosmos 1943 Rocket 4.3 03:40:39 10° N 03:45:08 24° ENE 03:49:35 10° ESE
Okean O Rocket 4.3 03:46:01 10° ENE 03:48:05 13° E 03:48:35 13° E
Cosmos 2315 Rocket 4.4 03:51:10 57° E 03:51:10 57° E 03:57:08 10° NNE
CZ-4C R/B 4.3 04:06:22 15° NW 04:06:22 15° NW 04:09:36 10° N
Cosmos 839 Rocket 4.1 03:58:39 10° NNW 04:06:15 82° WNW 04:06:15 82° WNW
ATLAS 5 CENTAUR R/B 2.6 04:15:17 48° NNE 04:15:17 48° NNE 04:19:04 10° NNE
Meteor 2-10 4.5 04:20:36 57° NNW 04:20:36 57° NNW 04:25:00 10° N
SL-16 R/B 2.3 04:23:32 77° W 04:23:32 77° W 04:29:37 10° NNW
Cosmos 1302 Rocket 4.3 04:24:53 10° NNW 04:28:59 55° NNW 04:28:59 55° NNW
UNKNOWN OBJECT B 4.3 04:34:57 10° N 04:36:50 28° N 04:36:50 28° N
IRS-1D 4.3 04:33:51 10° N 04:37:54 40° NW 04:37:54 40° NW
Cosmos 1709 Rocket 4.0 04:35:07 10° NNW 04:41:20 59° W 04:41:39 59° WSW
Cosmos 1869 4.4 04:44:49 37° N 04:44:49 37° N 04:47:20 10° N
SeaSat 1 3.4 04:39:16 10° SE 04:43:57 47° ENE 04:48:40 10° NNW
CZ-2D R/B 2.5 04:39:18 10° N 04:43:49 46° NW 04:43:49 46° NW
ARIANE 5 R/B 3.6 04:41:38 10° N 04:45:27 32° NW 04:45:27 32° NW
Cosmos 389 Rocket 4.0 04:49:10 31° N 04:49:10 31° N 04:51:08 10° N
USA 234 3.8 04:42:32 10° NNE 04:48:41 45° NW 04:50:41 35° WNW
Cosmos 1733 Rocket 3.6 04:44:20 10° NNW 04:47:35 48° NNW 04:47:35 48° NNW
Cosmos 1933 3.5 04:54:19 62° SE 04:54:49 71° E 04:58:55 10° NNE
GPS 2-05 Rocket1 4.3 04:59:49 28° SE 04:59:49 28° SE 05:01:59 10° E
COSMOS 2406 3.1 04:58:37 44° SSW 05:00:32 84° WNW 05:06:19 10° NNE
CZ-4B R/B 3.2 04:57:40 10° NNE 05:01:19 55° E 05:02:25 39° SSE
Cosmos 2074 Rocket 3.9 04:57:47 10° N 05:04:03 88° E 05:10:17 10° S
Atlas Centaur 2 2.8 05:04:52 26° SSE 05:05:13 26° SSE 05:09:19 10° ESE
Cosmos 2327 Rocket 4.4 04:59:58 10° N 05:06:07 89° E 05:12:18 10° S
MOZ.5/SAFIR/RUBIN 5/SL-8 3.7 05:02:52 13° SSE 05:06:59 88° ENE 05:11:38 10° NNW
COSMOS 2487 4.0 05:07:09 21° SSE 05:08:57 35° ESE 05:12:16 10° NE
Aureole 3 Rocket 4.2 05:01:33 10° S 05:08:58 69° E 05:14:12 10° NNE
Cosmos 1174 4.4 05:07:43 45° SW 05:09:13 66° WNW 05:13:49 10° NNE
Cosmos 2184 Rocket 4.0 05:02:52 10° N 05:09:17 87° W 05:15:37 10° S
Cosmos 2369 Rocket 4.1 05:05:23 10° NW 05:06:18 14° NW 05:06:18 14° NW
Cosmos 1455 4.3 05:12:01 16° NW 05:12:01 16° NW 05:13:17 10° NNW
CZ-2D R/B 4.2 05:09:38 10° N 05:13:35 37° WNW 05:13:35 37° WNW
Cosmos 1190 Rocket 4.1 05:10:40 23° S 05:13:54 71° ESE 05:19:05 10° NNE
Resurs 1-4 Rocket 3.3 05:10:34 10° NNW 05:14:44 24° WNW 05:14:50 24° WNW
CZ-4B R/B 3.0 05:10:53 10° NNE 05:16:12 86° WNW 05:19:40 22° SSW
CZ-4B DEB 4.1 05:11:07 10° NNE 05:16:38 88° ESE 05:20:46 18° SSW
Cosmos 1908 Rocket 3.4 05:14:06 10° N 05:18:29 75° W 05:21:54 16° S
CZ-3 R/B 4.2 04:28:32 10° W 05:18:36 52° SW 05:29:37 10° SE
ADEOS Rocket 4.1 05:11:10 10° NNE 05:18:52 60° E 05:26:22 10° S
SL-08 ROCKET BODY 4.3 05:13:52 10° N 05:19:55 76° W 05:26:01 10° S
Thor Agena Rocket 3.9 05:15:41 10° SSE 05:20:45 68° ENE 05:25:56 10° N
CENTAUR R/B 3.1 05:20:07 30° W 05:22:36 42° NW 05:29:01 10° NNE
Cosmos 2221 Rocket 3.4 05:20:59 26° SSW 05:23:24 78° W 05:27:50 10° N
Cosmos 1992 Rocket 3.9 05:19:02 10° NNW 05:24:17 90° E 05:29:31 10° SSE
Okean O Rocket 1.9 05:20:23 10° N 05:24:40 47° WNW 05:26:03 35° WSW
SL-27 R/B 3.9 05:27:08 24° WNW 05:27:08 24° WNW 05:29:46 10° N
ADEOS II 2.9 05:22:30 10° NNE 05:27:37 51° E 05:32:42 10° S
ARGOS Delta rocket 4.4 05:24:48 10° N 05:28:42 32° WNW 05:29:24 30° W
Cosmos 1943 Rocket 2.4 05:23:43 10° NW 05:29:02 43° WSW 05:34:20 10° S
USA 32 4.0 05:25:48 15° SSW 05:30:05 69° W 05:35:19 10° N
PSLV R/B 4.5 05:27:20 10° N 05:30:45 33° WNW 05:31:08 32° W
Okean-O 3.1 05:27:21 10° NNE 05:31:45 59° E 05:36:07 10° S
Cosmos 1703 Rocket 3.7 05:30:57 27° SW 05:33:08 52° W 05:37:31 10° N
PSLV R/B 4.4 05:31:59 19° NW 05:34:09 41° NNE 05:37:24 10° E
Cosmos 1408 2.8 05:30:41 10° NNW 05:34:19 49° W 05:36:27 22° SSW
Sich 1 Rocket 4.3 05:36:46 10° NNW 05:40:39 31° W 05:42:28 23° SW
Cosmos 2285 Rocket 4.0 05:34:33 10° NNW 05:40:52 62° WSW 05:47:08 10° S
Cosmos 1825 2.9 05:44:57 10° NNW 05:48:20 31° W 05:50:26 18° SW
USA 116 4.5 05:46:35 10° SSE 05:51:16 77° ENE 05:56:28 10° N
Cosmos 676 Rocket 3.9 05:46:37 10° SSW 05:51:47 86° WNW 05:57:01 10° NNE
PSLV R/B 3.6 05:50:35 10° N 05:54:55 64° WNW 05:59:15 10° SSW
Meteor 1-31 Rocket 3.7 05:51:35 10° NNE 05:55:18 49° E 05:59:00 10° S
Cosmos 1656 Rocket 3.7 05:53:01 10° NNW 05:58:17 53° WSW 06:03:31 10° S
ATLAS 5 CENTAUR R/B 4.1 05:58:17 10° NW 05:59:40 11° NW 06:01:04 10° NNW
NAVSTAR 52 R/B(PAM-D 4.1 06:00:58 17° NW 06:01:59 31° N 06:03:32 10° ENE
CZ-4B R/B 4.4 06:02:30 10° NNE 06:07:01 71° E 06:11:24 10° S
Okean 1-7 3.8 06:03:36 10° SW 06:07:28 33° WNW 06:11:24 10° NNW
Meteor 2-13 Rocket 4.4 06:01:30 10° N 06:07:34 87° W 06:13:37 10° S
Cosmos 407 Rocket 4.0 06:04:17 10° SW 06:09:10 41° WNW 06:14:10 10° N
Okean 2 Rocket 3.8 06:12:29 10° NNW 06:16:33 34° W 06:20:39 10° SSW
BREEZE M DEB (TANK) 4.0 06:16:40 10° S 06:18:46 26° ESE 06:22:42 10° ENE
SeaSat 1 3.7 06:18:10 10° SSW 06:21:38 19° WSW 06:25:06 10° WNW
Cosmos 1140 Rocket 3.4 06:23:33 10° SSW 06:28:39 75° WNW 06:33:48 10° NNE
